Folgueroles





Hora UTC 14:40
Temperatura 22.3 ºC
Humitat 55.0 %
Pressió 1017.3 hPa
Pluja 0.2 mm
Velocitat vent 0.0 km/h
Direcció vent N

Dades diàries 2021-09-19



Hora UTC (hivern +1h; estiu +2h)
Temperatura (ºC) Humitat (%) Pressió (hPa) Velocitat vent (km/h) Precipitació (mm)
Hora UTC Aire Humitat Pressió Vel. Dir. Vel. Max Dir. Intent. màx 5 min.
00:05 16.7 95.0 1015.0 0.0 N 0.0 0.0
00:10 16.6 94.0 1015.1 0.0 N 0.0 0.0
00:15 16.6 94.0 1015.2 0.0 N 0.0 0.0
00:20 16.4 95.0 1015.2 0.0 N 0.0 0.0
00:25 16.4 95.0 1015.3 0.0 N 0.0 0.0
00:30 16.4 95.0 1015.4 0.0 N 0.0 0.0
00:35 16.4 95.0 1015.4 0.0 N 0.0 0.0
00:40 16.4 95.0 1015.4 0.0 N 0.0 0.0
00:45 16.4 95.0 1015.4 0.0 N 0.0 0.0
00:50 16.4 95.0 1015.3 0.0 N 0.0 0.0
00:55 16.3 95.0 1015.4 0.0 N 0.0 0.0
01:00 16.3 95.0 1015.3 0.0 N 0.0 0.0
01:05 16.3 95.0 1015.3 0.0 N 0.0 0.0
01:10 16.2 95.0 1015.2 0.0 NNE 0.0 0.0
01:15 16.1 95.0 1015.2 0.0 S 4.8 0.0
01:20 15.8 94.0 1015.1 0.0 S 4.8 0.0
01:25 15.7 94.0 1015.1 0.0 S 3.2 0.0
01:30 15.6 94.0 1015.2 0.0 S 0.0 0.0
01:35 15.4 94.0 1015.3 0.0 S 0.0 0.0
01:40 15.4 94.0 1015.3 0.0 S 0.0 0.0
01:45 15.3 94.0 1015.3 0.0 S 0.0 0.0
01:50 15.3 94.0 1015.4 0.0 S 0.0 0.0
01:55 15.2 94.0 1015.4 0.0 S 0.0 0.0
02:00 15.1 94.0 1015.4 0.0 S 0.0 0.0
02:05 14.9 94.0 1015.4 0.0 S 0.0 0.0
02:10 14.9 94.0 1015.4 0.0 S 0.0 0.0
02:15 14.8 94.0 1015.3 0.0 S 0.0 0.0
02:20 14.7 94.0 1015.2 0.0 S 0.0 0.0
02:25 14.6 94.0 1015.5 0.0 S 0.0 0.0
02:30 14.4 93.0 1015.4 0.0 S 0.0 0.0
02:35 14.3 93.0 1015.5 0.0 S 0.0 0.0
02:40 14.1 93.0 1015.5 0.0 S 0.0 0.0
02:45 13.9 93.0 1015.5 0.0 S 1.6 0.0
02:50 13.9 94.0 1015.4 0.0 S 1.6 0.0
02:55 13.9 94.0 1015.5 0.0 S 0.0 0.0
03:00 13.8 94.0 1015.6 0.0 S 0.0 0.0
03:05 13.8 94.0 1015.6 0.0 S 0.0 0.0
03:10 13.8 94.0 1015.7 0.0 S 0.0 0.0
03:15 13.8 94.0 1015.7 0.0 S 0.0 0.0
03:20 13.7 94.0 1015.7 0.0 S 0.0 0.0
03:25 13.7 94.0 1015.8 0.0 ESE 4.8 0.0
03:30 13.7 94.0 1015.8 0.0 ESE 0.0 0.0
03:35 13.7 94.0 1015.8 0.0 ESE 0.0 0.0
03:40 13.7 94.0 1015.8 3.2 SSE 3.2 0.0
03:45 13.8 94.0 1015.9 0.0 SSE 4.8 0.0
03:50 13.8 94.0 1015.7 0.0 SSE 0.0 0.0
03:55 13.8 94.0 1015.9 0.0 SSE 0.0 0.0
04:00 13.7 94.0 1015.9 0.0 W 3.2 0.0
04:05 13.6 92.0 1015.8 0.0 W 3.2 0.0
04:10 13.6 92.0 1015.9 0.0 W 1.6 0.0
04:15 13.6 91.0 1016.0 0.0 W 1.6 0.0
04:20 13.5 91.0 1015.9 0.0 W 1.6 0.0
04:25 13.4 90.0 1016.1 0.0 W 1.6 0.0
04:30 13.4 90.0 1016.1 0.0 W 1.6 0.0
04:35 13.3 90.0 1016.1 0.0 W 1.6 0.0
04:40 13.3 90.0 1016.1 0.0 W 0.0 0.0
04:45 13.2 90.0 1016.2 0.0 W 0.0 0.0
04:50 13.1 90.0 1016.2 0.0 W 1.6 0.0
04:55 13.1 90.0 1016.2 0.0 W 1.6 0.0
05:00 13.0 90.0 1016.3 0.0 W 0.0 0.0
05:05 12.8 90.0 1016.4 0.0 W 1.6 0.0
05:10 12.7 91.0 1016.4 0.0 W 1.6 0.0
05:15 12.6 91.0 1016.5 0.0 W 1.6 0.0
05:20 12.5 91.0 1016.5 0.0 W 0.0 0.0
05:25 12.3 91.0 1016.6 0.0 W 0.0 0.0
05:30 12.3 91.0 1016.6 1.6 W 1.6 0.0
05:35 12.2 91.0 1016.6 0.0 W 1.6 0.0
05:40 12.1 91.0 1016.7 0.0 W 1.6 0.0
05:45 12.0 92.0 1016.9 0.0 W 1.6 0.0
05:50 11.9 92.0 1016.7 0.0 W 0.0 0.0
05:55 11.8 92.0 1016.9 0.0 W 0.0 0.0
06:00 11.7 92.0 1016.9 0.0 W 1.6 0.0
06:05 11.7 92.0 1017.1 0.0 W 1.6 0.0
06:10 11.6 92.0 1017.1 0.0 W 1.6 0.0
06:15 11.6 92.0 1017.2 0.0 W 0.0 0.0
06:20 11.6 92.0 1017.3 0.0 W 0.0 0.0
06:25 11.6 92.0 1017.4 0.0 W 1.6 0.0
06:30 11.7 92.0 1017.4 0.0 W 3.2 0.0
06:35 11.7 92.0 1017.4 0.0 W 0.0 0.0
06:40 11.9 92.0 1017.3 0.0 W 0.0 0.0
06:45 12.0 92.0 1017.4 0.0 W 0.0 0.0
06:50 12.2 92.0 1017.5 0.0 W 0.0 0.0
06:55 12.3 92.0 1017.5 0.0 W 1.6 0.0
07:00 12.4 92.0 1017.5 0.0 W 1.6 0.0
07:05 12.6 91.0 1017.6 0.0 W 1.6 0.2
07:10 12.7 91.0 1017.7 1.6 W 1.6 0.0
07:15 12.8 90.0 1017.7 0.0 W 1.6 0.0
07:20 12.8 89.0 1017.7 1.6 W 3.2 0.0
07:25 12.9 89.0 1017.8 0.0 W 3.2 0.0
07:30 13.0 88.0 1017.8 0.0 W 1.6 0.0
07:35 13.1 88.0 1017.8 0.0 W 0.0 0.0
07:40 13.1 89.0 1017.8 0.0 W 1.6 0.0
07:45 13.3 88.0 1017.9 0.0 W 1.6 0.0
07:50 13.4 88.0 1017.9 0.0 W 1.6 0.0
07:55 13.6 87.0 1018.0 0.0 W 1.6 0.0
08:00 13.7 89.0 1018.1 0.0 W 1.6 0.0
08:05 13.8 87.0 1018.1 0.0 W 3.2 0.0
08:10 13.9 87.0 1018.1 0.0 W 1.6 0.0
08:15 14.1 87.0 1018.2 0.0 W 1.6 0.0
08:20 14.2 87.0 1018.3 0.0 W 3.2 0.0
08:25 14.3 86.0 1018.3 0.0 W 3.2 0.0
08:30 14.4 86.0 1018.3 0.0 NNE 4.8 0.0
08:35 14.6 86.0 1018.4 0.0 WNW 4.8 0.0
08:40 14.7 87.0 1018.4 0.0 WNW 3.2 0.0
08:45 14.8 86.0 1018.5 0.0 WNW 3.2 0.0
08:50 14.8 86.0 1018.6 0.0 WNW 3.2 0.0
08:55 14.9 85.0 1018.6 1.6 NNE 4.8 0.0
09:00 14.9 85.0 1018.5 0.0 NE 4.8 0.0
09:05 15.1 86.0 1018.6 0.0 NNE 4.8 0.0
09:10 15.2 85.0 1018.6 0.0 W 4.8 0.0
09:15 15.3 86.0 1018.7 0.0 W 3.2 0.0
09:20 15.4 85.0 1018.7 0.0 W 0.0 0.0
09:25 15.6 85.0 1018.7 0.0 W 0.0 0.0
09:30 15.6 83.0 1018.8 0.0 W 3.2 0.0
09:35 15.7 83.0 1018.9 1.6 NE 3.2 0.0
09:40 15.9 85.0 1018.8 0.0 NNW 4.8 0.0
09:45 16.1 84.0 1018.8 1.6 NNW 4.8 0.0
09:50 16.2 83.0 1018.8 0.0 NNW 3.2 0.0
09:55 16.2 82.0 1018.8 0.0 N 6.4 0.0
10:00 16.2 82.0 1018.8 0.0 WSW 6.4 0.0
10:05 16.2 80.0 1018.7 0.0 WSW 3.2 0.0
10:10 16.3 82.0 1018.8 0.0 NNW 4.8 0.0
10:15 16.4 81.0 1018.7 0.0 NNW 4.8 0.0
10:20 16.6 81.0 1018.6 0.0 WNW 0.0 0.0
10:25 16.8 80.0 1018.6 0.0 WSW 3.2 0.0
10:30 16.9 81.0 1018.4 4.8 N 6.4 0.0
10:35 17.0 79.0 1018.5 0.0 NNW 6.4 0.0
10:40 17.1 79.0 1018.4 3.2 N 6.4 0.0
10:45 17.3 78.0 1018.4 1.6 N 6.4 0.0
10:50 17.4 77.0 1018.5 0.0 NNW 4.8 0.0
10:55 17.6 75.0 1018.4 0.0 SW 4.8 0.0
11:00 17.9 77.0 1018.4 0.0 WNW 3.2 0.0
11:05 18.3 76.0 1018.4 0.0 W 3.2 0.0
11:10 18.4 74.0 1018.4 0.0 NW 6.4 0.0
11:15 18.8 73.0 1018.4 0.0 WSW 6.4 0.0
11:20 19.1 72.0 1018.3 4.8 SSW 4.8 0.0
11:25 19.3 72.0 1018.3 0.0 W 4.8 0.0
11:30 19.6 72.0 1018.4 0.0 WSW 3.2 0.0
11:35 19.8 70.0 1018.2 0.0 WSW 1.6 0.0
11:40 20.2 72.0 1018.2 0.0 WSW 1.6 0.0
11:45 20.4 71.0 1018.2 3.2 W 4.8 0.0
11:50 20.6 70.0 1018.3 0.0 W 4.8 0.0
11:55 20.8 68.0 1018.2 1.6 NW 3.2 0.0
12:00 20.9 67.0 1018.3 0.0 NW 3.2 0.0
12:05 21.0 67.0 1018.2 0.0 W 4.8 0.0
12:10 21.2 68.0 1018.2 0.0 W 4.8 0.0
12:15 21.4 68.0 1018.2 0.0 W 0.0 0.0
12:20 21.6 66.0 1018.1 4.8 N 6.4 0.0
12:25 21.7 65.0 1018.1 0.0 NNW 6.4 0.0
12:30 21.8 63.0 1018.0 1.6 SSW 8.0 0.0
12:35 21.9 65.0 1017.9 0.0 SSW 8.0 0.0
12:40 22.2 63.0 1017.8 0.0 WNW 6.4 0.0
12:45 22.3 61.0 1017.9 0.0 W 3.2 0.0
12:50 22.4 62.0 1017.8 0.0 NNW 6.4 0.0
12:55 22.5 61.0 1017.8 0.0 NW 6.4 0.0
13:00 22.4 65.0 1017.8 0.0 NW 3.2 0.0
13:05 22.5 62.0 1017.7 0.0 NNW 4.8 0.0
13:10 22.6 59.0 1017.8 3.2 W 8.0 0.0
13:15 22.7 60.0 1017.7 0.0 W 8.0 0.0
13:20 22.9 60.0 1017.6 0.0 W 4.8 0.0
13:25 23.1 59.0 1017.7 0.0 W 3.2 0.0
13:25 23.1 59.0 1017.6 1.6 N 8.0 0.0
13:35 23.1 58.0 1017.5 0.0 NW 8.0 0.0
13:40 23.2 54.0 1017.5 1.6 NW 4.8 0.0
13:45 23.3 54.0 1017.4 3.2 W 4.8 0.0
13:50 23.4 52.0 1017.4 0.0 W 4.8 0.0
13:55 23.5 52.0 1017.4 1.6 NW 6.4 0.0
14:00 23.3 52.0 1017.4 0.0 NNW 6.4 0.0
14:05 23.3 54.0 1017.5 0.0 W 4.8 0.0
14:10 23.3 52.0 1017.4 0.0 WNW 4.8 0.0
14:15 23.2 52.0 1017.4 1.6 WNW 3.2 0.0
14:20 23.0 55.0 1017.2 0.0 W 6.4 0.0
14:25 22.8 54.0 1017.3 0.0 N 6.4 0.0
14:30 22.6 55.0 1017.2 3.2 N 4.8 0.0
14:35 22.3 56.0 1017.3 0.0 N 4.8 0.0
14:40 22.3 55.0 1017.3 0.0 N 4.8 0.0
Màxima 23.5 95.0 1018.9 4.8 N 8.0 0.2
Mínima 11.6 52.0 1015.0
Total 0.2